Location: Homewood
(41.1836°S, 175.9581°E)
Time: 11:31:05
(UTC+00:00)

BREEZE M DEB (TANK) - Pass Details

Date: 18 April 2024
Orbit: 303 x 11486 km, 49.6° (Epoch: 23 May)

Event Time Altitude Azimuth Distance (km) Brightness Sun altitude
Exits shadow 16:40:40 37° 155° (SSE) 814 3.3 -25.1°
Drops below altitude 10° 16:44:30 10° 124° (ESE) 2,547 6.5 -24.4°
Sets 16:48:51 0° 118° (ESE) 4,577 8.1 -23.6°
